GW2898 Weather Reports


Display with metric or nautical units.
time (UTC)temp
F
wind
direction
speed
MPH
gust
MPH
rain 1hr
in
rain 24hr
in
rain mn
in
humidity
%
barometer
mb
20260902203216 100 254 3.0 8.0 0.00 0.00 0.00 30 1016.4
20260902202716 99 153 0.0 10.0 0.00 0.00 0.00 31 1016.2
20260902202213 99 203 2.0 10.0 0.00 0.00 0.00 34 1016.3
20260902201709 100 146 2.0 3.0 0.00 0.00 0.00 33 1016.4
20260902201208 99 197 5.0 7.0 0.00 0.00 0.00 33 1016.7
20260902200703 99 223 4.0 6.0 0.00 0.00 0.00 32 1016.5
20260902200159 99 203 3.0 7.0 0.00 0.00 0.00 32 1016.8
20260902195654 99 203 3.0 9.0 0.00 0.00 0.00 32 1016.8
20260902195154 98 226 3.0 5.0 0.00 0.00 0.00 33 1017.1
20260902194647 97 239 3.0 7.0 0.00 0.00 0.00 31 1017.0
20260902194143 98 261 5.0 6.0 0.00 0.00 0.00 33 1017.0
20260902193638 98 228 2.0 6.0 0.00 0.00 0.00 34 1017.2
20260902193133 97 232 3.0 10.0 0.00 0.00 0.00 38 1017.1
20260902192631 97 1 1.0 5.0 0.00 0.00 0.00 34 1017.3
20260902192130 96 219 3.0 5.0 0.00 0.00 0.00 34 1017.6
20260902191625 96 217 0.0 6.0 0.00 0.00 0.00 38 1017.7
20260902191119 97 225 2.0 7.0 0.00 0.00 0.00 37 1017.7
20260902190615 97 176 2.0 5.0 0.00 0.00 0.00 37 1017.6
20260902190110 97 295 4.0 5.0 0.00 0.00 0.00 33 1017.6
20260902185606 97 153 1.0 3.0 0.00 0.00 0.00 34 1017.8
20260902185101 97 213 2.0 7.0 0.00 0.00 0.00 37 1017.9
20260902184556 96 268 3.0 12.0 0.00 0.00 0.00 36 1018.0
20260902184051 96 205 3.0 5.0 0.00 0.00 0.00 37 1017.9
20260902183548 96 232 5.0 8.0 0.00 0.00 0.00 37 1018.0
20260902183044 97 193 0.0 5.0 0.00 0.00 0.00 35 1018.1
20260902182540 96 158 5.0 8.0 0.00 0.00 0.00 37 1018.2
20260902182036 95 241 1.0 9.0 0.00 0.00 0.00 39 1018.3
20260902181532 96 217 2.0 5.0 0.00 0.00 0.00 36 1018.4
20260902181026 96 258 0.0 5.0 0.00 0.00 0.00 40 1018.4
20260902180526 95 241 4.0 9.0 0.00 0.00 0.00 37 1018.4
20260902180022 96 254 4.0 10.0 0.00 0.00 0.00 38 1018.4
20260902175516 96 258 5.0 9.0 0.00 0.00 0.00 35 1018.5
20260902175013 95 244 5.0 9.0 0.00 0.00 0.00 35 1018.7
20260902174509 95 224 1.0 6.0 0.00 0.00 0.00 38 1018.4
20260902174004 95 247 4.0 9.0 0.00 0.00 0.00 38 1018.5
20260902173503 94 245 7.0 7.0 0.00 0.00 0.00 39 1018.5
20260902172958 95 218 4.0 7.0 0.00 0.00 0.00 40 1018.5
20260902172457 95 236 2.0 4.0 0.00 0.00 0.00 38 1018.7
20260902171953 94 199 3.0 5.0 0.00 0.00 0.00 38 1018.7
20260902171448 95 192 3.0 6.0 0.00 0.00 0.00 37 1018.6
20260902170944 95 217 1.0 6.0 0.00 0.00 0.00 39 1018.7
20260902170439 95 220 2.0 4.0 0.00 0.00 0.00 43 1018.3
20260902165935 94 214 4.0 6.0 0.00 0.00 0.00 42 1018.6
20260902165434 94 216 1.0 4.0 0.00 0.00 0.00 41 1018.7
20260902164928 93 242 5.0 7.0 0.00 0.00 0.00 41 1018.5
20260902164424 93 213 0.0 4.0 0.00 0.00 0.00 48 1018.7
20260902163922 92 250 3.0 8.0 0.00 0.00 0.00 47 1018.6
20260902163418 92 232 4.0 7.0 0.00 0.00 0.00 47 1018.9
20260902162915 92 158 2.0 5.0 0.00 0.00 0.00 51 1018.7
20260902162411 91 164 0.0 6.0 0.00 0.00 0.00 52 1018.9
20260902161906 90 208 2.0 4.0 0.00 0.00 0.00 53 1018.6
20260902161401 91 258 3.0 6.0 0.00 0.00 0.00 53 1018.9
20260902160858 90 119 1.0 5.0 0.00 0.00 0.00 55 1018.9
20260902160353 90 225 1.0 5.0 0.00 0.00 0.00 56 1018.7
20260902155851 90 166 3.0 5.0 0.00 0.00 0.00 55 1018.6
20260902155350 89 232 2.0 4.0 0.00 0.00 0.00 56 1018.6
20260902154845 90 224 2.0 5.0 0.00 0.00 0.00 55 1018.3
20260902154341 90 250 3.0 6.0 0.00 0.00 0.00 55 1018.6
20260902153839 90 145 1.0 4.0 0.00 0.00 0.00 54 1018.6
20260902153339 89 167 2.0 5.0 0.00 0.00 0.00 55 1018.6
20260902152835 89 57 0.0 4.0 0.00 0.00 0.00 57 1018.4
20260902152331 89 178 3.0 5.0 0.00 0.00 0.00 56 1018.3
20260902151826 89 214 1.0 4.0 0.00 0.00 0.00 58 1018.5
20260902151321 87 202 0.0 5.0 0.00 0.00 0.00 59 1018.2
20260902150816 87 165 3.0 6.0 0.00 0.00 0.00 59 1018.3
20260902150312 87 190 3.0 6.0 0.00 0.00 0.00 58 1018.5
20260902145811 87 208 2.0 5.0 0.00 0.00 0.00 60 1018.4
20260902145307 87 180 1.0 5.0 0.00 0.00 0.00 59 1018.4
20260902144802 88 213 0.0 3.0 0.00 0.00 0.00 57 1018.3
20260902144258 87 204 1.0 3.0 0.00 0.00 0.00 58 1018.2
20260902143753 87 204 2.0 6.0 0.00 0.00 0.00 58 1018.4
20260902143247 87 218 2.0 3.0 0.00 0.00 0.00 57 1018.4
20260902142743 87 164 0.0 3.0 0.00 0.00 0.00 59 1018.3
20260902142238 86 177 2.0 3.0 0.00 0.00 0.00 60 1018.1
20260902141733 86 141 0.0 2.0 0.00 0.00 0.00 61 1018.1
20260902141229 85 117 0.0 2.0 0.00 0.00 0.00 63 1018.2
20260902140724 85 185 0.0 1.0 0.00 0.00 0.00 63 1018.2
20260902140219 84 154 0.0 2.0 0.00 0.00 0.00 66 1018.2
20260902135718 83 212 0.0 1.0 0.00 0.00 0.00 68 1018.0
20260902135214 83 129 0.0 0.0 0.00 0.00 0.00 68 1018.1
20260902134713 82 129 0.0 0.0 0.00 0.00 0.00 71 1018.0
20260902134209 81 37 0.0 0.0 0.00 0.00 0.00 73 1017.8
20260902133708 80 37 0.0 0.0 0.00 0.00 0.00 74 1017.6
20260902133203 79 35 0.0 2.0 0.00 0.00 0.00 75 1017.6
20260902132658 79 19 0.0 2.0 0.00 0.00 0.00 76 1017.6
20260902132153 78 62 0.0 0.0 0.00 0.00 0.00 76 1017.4
20260902131649 78 62 0.0 0.0 0.00 0.00 0.00 76 1017.4
20260902131144 78 129 0.0 0.0 0.00 0.00 0.00 76 1017.4
20260902130640 78 135 0.0 1.0 0.00 0.00 0.00 75 1017.4
20260902130135 78 117 0.0 1.0 0.00 0.00 0.00 74 1017.5
20260902125631 78 117 0.0 0.0 0.00 0.00 0.00 74 1017.3
20260902125126 78 91 1.0 2.0 0.00 0.00 0.00 74 1017.5
20260902124623 78 309 0.0 2.0 0.00 0.00 0.00 74 1017.1
20260902124122 78 333 0.0 1.0 0.00 0.00 0.00 76 1017.3
20260902123618 77 75 0.0 0.0 0.00 0.00 0.00 75 1017.2
20260902123113 78 60 0.0 1.0 0.00 0.00 0.00 75 1017.1
20260902122612 78 28 0.0 2.0 0.00 0.00 0.00 74 1017.0
20260902122109 78 53 0.0 0.0 0.00 0.00 0.00 74 1016.9
20260902121608 78 343 0.0 2.0 0.00 0.00 0.00 74 1016.9
20260902121103 78 164 0.0 1.0 0.00 0.00 0.00 73 1017.0
20260902120559 78 93 1.0 2.0 0.00 0.00 0.00 74 1016.9
20260902120055 78 50 0.0 0.0 0.00 0.00 0.00 73 1017.0
20260902115550 78 309 0.0 1.0 0.00 0.00 0.00 73 1016.7
20260902115047 78 99 0.0 0.0 0.00 0.00 0.00 72 1016.8
20260902114542 79 326 0.0 0.0 0.00 0.00 0.00 71 1016.8
20260902114036 79 322 0.0 1.0 0.00 0.00 0.00 72 1016.8
20260902113533 79 331 0.0 2.0 0.00 0.00 0.00 72 1016.8
20260902113027 79 69 0.0 0.0 0.00 0.00 0.00 71 1016.9
20260902112523 79 69 0.0 0.0 0.00 0.00 0.00 71 1016.8
20260902112020 79 89 0.0 0.0 0.00 0.00 0.00 70 1016.8
20260902111515 79 89 0.0 0.0 0.00 0.00 0.00 70 1016.7
20260902111010 79 89 0.0 0.0 0.00 0.00 0.00 70 1016.6
20260902110506 79 37 0.0 0.0 0.00 0.00 0.00 70 1016.7
20260902110001 80 37 0.0 0.0 0.00 0.00 0.00 70 1016.6
20260902105456 79 9 1.0 1.0 0.00 0.00 0.00 70 1016.8
20260902104950 79 336 0.0 0.0 0.00 0.00 0.00 69 1016.5
20260902104446 79 336 0.0 0.0 0.00 0.00 0.00 70 1016.7
20260902103946 79 336 0.0 0.0 0.00 0.00 0.00 69 1016.7
20260902103441 80 336 0.0 0.0 0.00 0.00 0.00 69 1016.7
20260902102937 79 62 0.0 0.0 0.00 0.00 0.00 69 1016.6
20260902102428 79 62 0.0 0.0 0.00 0.00 0.00 67 1016.8
20260902101924 80 62 0.0 0.0 0.00 0.00 0.00 67 1016.8
20260902101418 79 103 0.0 0.0 0.00 0.00 0.00 67 1016.6
20260902100917 80 103 0.0 0.0 0.00 0.00 0.00 68 1016.7
20260902100412 80 104 0.0 1.0 0.00 0.00 0.00 68 1016.4
20260902095907 80 89 0.0 2.0 0.00 0.00 0.00 67 1016.9
20260902095407 80 89 0.0 0.0 0.00 0.00 0.00 66 1016.6
20260902094901 80 89 0.0 0.0 0.00 0.00 0.00 65 1016.6
20260902094357 81 46 0.0 1.0 0.00 0.00 0.00 66 1016.4
20260902093856 81 35 0.0 1.0 0.00 0.00 0.00 66 1016.7
20260902093352 81 337 0.0 1.0 0.00 0.00 0.00 65 1016.5
20260902092850 82 333 0.0 0.0 0.00 0.00 0.00 64 1016.7
20260902092347 82 355 0.0 2.0 0.00 0.00 0.00 63 1016.7
20260902091846 82 66 0.0 1.0 0.00 0.00 0.00 64 1016.4
20260902091341 82 82 1.0 2.0 0.00 0.00 0.00 63 1016.5
20260902090838 82 75 0.0 0.0 0.00 0.00 0.00 61 1016.6
20260902090337 82 75 0.0 0.0 0.00 0.00 0.00 62 1016.6
20260902085837 82 75 0.0 0.0 0.00 0.00 0.00 61 1016.8
20260902085332 82 75 0.0 0.0 0.00 0.00 0.00 61 1016.6
20260902084828 83 32 0.0 0.0 0.00 0.00 0.00 61 1016.7
20260902084324 84 322 0.0 1.0 0.00 0.00 0.00 60 1016.7
20260902083819 84 142 0.0 2.0 0.00 0.00 0.00 58 1016.8
20260902083314 83 140 0.0 1.0 0.00 0.00 0.00 60 1016.6
20260902082809 82 104 0.0 0.0 0.00 0.00 0.00 62 1016.8
20260902082309 82 104 0.0 0.0 0.00 0.00 0.00 62 1016.6
20260902081802 83 104 0.0 0.0 0.00 0.00 0.00 61 1016.6
20260902081256 83 104 0.0 0.0 0.00 0.00 0.00 61 1016.6
20260902080751 84 93 0.0 1.0 0.00 0.00 0.00 60 1016.8
20260902080249 84 104 0.0 0.0 0.00 0.00 0.00 59 1016.9
20260902075747 84 114 0.0 1.0 0.00 0.00 0.00 59 1016.8
20260902075243 84 113 0.0 1.0 0.00 0.00 0.00 58 1016.4
20260902074738 85 103 0.0 0.0 0.00 0.00 0.00 57 1016.7
20260902074233 85 89 0.0 1.0 0.00 0.00 0.00 57 1016.5
20260902073729 85 335 0.0 1.0 0.00 0.00 0.00 57 1016.6
20260902073224 85 209 0.0 0.0 0.00 0.00 0.00 56 1016.5
20260902072720 85 209 0.0 1.0 0.00 0.00 0.00 56 1016.6
20260902072216 86 242 0.0 0.0 0.00 0.00 0.00 56 1016.3
20260902071712 86 242 0.0 1.0 0.00 0.00 0.00 54 1016.3
20260902071208 86 255 0.0 1.0 0.00 0.00 0.00 55 1016.3
20260902070704 86 135 0.0 1.0 0.00 0.00 0.00 54 1016.4
20260902070203 87 129 0.0 0.0 0.00 0.00 0.00 53 1016.4
20260902065702 87 117 0.0 1.0 0.00 0.00 0.00 53 1016.3
20260902065158 86 212 0.0 2.0 0.00 0.00 0.00 54 1016.4
20260902064653 86 269 0.0 2.0 0.00 0.00 0.00 57 1016.2
20260902064148 86 242 0.0 1.0 0.00 0.00 0.00 57 1016.4
20260902063644 86 147 0.0 0.0 0.00 0.00 0.00 56 1016.1
20260902063138 86 147 0.0 0.0 0.00 0.00 0.00 56 1016.3
20260902062638 86 147 0.0 0.0 0.00 0.00 0.00 57 1016.1
20260902062133 86 104 0.0 0.0 0.00 0.00 0.00 57 1016.2
20260902061632 86 104 0.0 0.0 0.00 0.00 0.00 54 1016.2
20260902061128 86 135 0.0 1.0 0.00 0.00 0.00 54 1016.1
20260902060624 86 104 0.0 0.0 0.00 0.00 0.00 54 1016.0
20260902060120 86 104 0.0 1.0 0.00 0.00 0.00 55 1016.1
20260902055616 86 66 0.0 1.0 0.00 0.00 0.00 56 1016.2
20260902055111 86 70 0.0 1.0 0.00 0.00 0.00 55 1016.3
20260902054606 86 117 0.0 0.0 0.00 0.00 0.00 54 1016.2
20260902054102 87 117 0.0 0.0 0.00 0.00 0.00 53 1016.1
20260902053557 87 117 0.0 1.0 0.00 0.00 0.00 52 1016.2
20260902053056 87 73 1.0 1.0 0.00 0.00 0.00 53 1016.2
20260902052551 87 256 0.0 0.0 0.00 0.00 0.00 52 1016.3
20260902052046 88 256 0.0 1.0 0.00 0.00 0.00 51 1016.3
20260902051541 88 142 0.0 1.0 0.00 0.00 0.00 51 1016.2
20260902051040 88 212 0.0 2.0 0.00 0.00 0.00 51 1016.3
20260902050535 89 210 0.0 1.0 0.00 0.00 0.00 50 1016.1
20260902050030 89 189 0.0 3.0 0.00 0.00 0.00 50 1016.3
20260902045525 86 196 2.0 3.0 0.00 0.00 0.00 54 1016.3
20260902045021 85 104 0.0 0.0 0.00 0.00 0.00 58 1016.1
20260902044515 85 104 0.0 0.0 0.00 0.00 0.00 58 1016.1
20260902044011 85 104 0.0 0.0 0.00 0.00 0.00 57 1016.1
20260902043507 86 104 0.0 0.0 0.00 0.00 0.00 56 1015.8
20260902043006 86 104 0.0 0.0 0.00 0.00 0.00 56 1016.0
20260902042501 86 104 0.0 0.0 0.00 0.00 0.00 55 1016.0
20260902041956 86 104 0.0 0.0 0.00 0.00 0.00 54 1016.0
20260902041450 86 104 0.0 0.0 0.00 0.00 0.00 55 1016.0
20260902040950 86 104 0.0 0.0 0.00 0.00 0.00 55 1015.6
20260902040444 86 104 0.0 0.0 0.00 0.00 0.00 55 1015.8
20260902035943 86 104 0.0 0.0 0.00 0.00 0.00 55 1015.6
20260902035439 87 104 0.0 0.0 0.00 0.00 0.00 54 1015.8
20260902034938 87 104 0.0 0.0 0.00 0.00 0.00 55 1015.5
20260902034434 87 104 0.0 1.0 0.00 0.00 0.00 55 1015.5
20260902033932 87 117 0.0 0.0 0.00 0.00 0.00 56 1015.4
20260902033432 87 117 0.0 0.0 0.00 0.00 0.00 53 1015.2
20260902032931 87 117 0.0 0.0 0.00 0.00 0.00 53 1015.2
20260902032426 87 117 0.0 0.0 0.00 0.00 0.00 53 1015.2
20260902031920 87 117 0.0 0.0 0.00 0.00 0.00 54 1015.0
20260902031416 88 117 0.0 0.0 0.00 0.00 0.00 54 1014.9
20260902030913 88 117 0.0 0.0 0.00 0.00 0.00 51 1014.7
20260902030407 88 117 0.0 0.0 0.00 0.00 0.00 51 1014.5
20260902025906 88 117 0.0 0.0 0.00 0.00 0.00 50 1014.5
20260902025402 89 117 0.0 1.0 0.00 0.00 0.00 50 1014.5
20260902024901 89 117 0.0 0.0 0.00 0.00 0.00 51 1014.4
20260902024352 89 117 0.0 0.0 0.00 0.00 0.00 50 1014.2
20260902023847 89 104 0.0 0.0 0.00 0.00 0.00 51 1014.3
20260902023342 89 89 0.0 1.0 0.00 0.00 0.00 50 1014.4
20260902022841 89 104 0.0 0.0 0.00 0.00 0.00 49 1014.4
20260902022337 89 104 0.0 0.0 0.00 0.00 0.00 48 1014.2
20260902021832 90 104 0.0 1.0 0.00 0.00 0.00 47 1014.2
20260902021326 90 103 0.0 1.0 0.00 0.00 0.00 46 1014.2
20260902020823 90 50 0.0 0.0 0.00 0.00 0.00 45 1014.3
20260902020319 91 50 0.0 0.0 0.00 0.00 0.00 45 1013.9
20260902015814 91 50 0.0 0.0 0.00 0.00 0.00 45 1014.1
20260902015310 92 50 0.0 0.0 0.00 0.00 0.00 44 1014.0
20260902014805 92 50 0.0 0.0 0.00 0.00 0.00 41 1014.1
20260902014302 93 50 0.0 0.0 0.00 0.00 0.00 42 1013.9
20260902013800 94 50 0.0 0.0 0.00 0.00 0.00 41 1014.1
20260902013256 95 50 0.0 0.0 0.00 0.00 0.00 41 1013.9
20260902012750 96 106 0.0 2.0 0.00 0.00 0.00 37 1013.7
20260902012247 96 124 0.0 1.0 0.00 0.00 0.00 38 1013.9
20260902011742 97 66 0.0 3.0 0.00 0.00 0.00 39 1014.2
20260902011242 98 111 1.0 3.0 0.00 0.00 0.00 36 1014.2
20260902010741 97 5 0.0 1.0 0.00 0.00 0.00 35 1014.2
20260902010237 98 84 1.0 2.0 0.00 0.00 0.00 37 1014.2
20260902005735 98 235 0.0 3.0 0.00 0.00 0.00 36 1014.3
20260902005231 98 222 2.0 5.0 0.00 0.00 0.00 36 1014.3
20260902004731 100 199 2.0 4.0 0.00 0.00 0.00 35 1014.4
20260902004226 99 42 0.0 2.0 0.00 0.00 0.00 35 1014.5
20260902003721 99 244 3.0 4.0 0.00 0.00 0.00 35 1014.3
20260902003217 101 222 0.0 2.0 0.00 0.00 0.00 33 1014.5
20260902002712 100 279 0.0 3.0 0.00 0.00 0.00 33 1014.6
20260902002206 100 255 3.0 6.0 0.00 0.00 0.00 35 1014.5
20260902001701 100 136 2.0 3.0 0.00 0.00 0.00 34 1014.7
20260902001156 100 259 2.0 6.0 0.00 0.00 0.00 35 1014.6
20260902000651 100 216 3.0 3.0 0.00 0.00 0.00 33 1014.7
20260902000146 100 189 0.0 3.0 0.00 0.00 0.00 37 1014.7
20260901235640 99 158 4.0 5.0 0.00 0.00 0.00 36 1014.9
20260901235136 100 237 2.0 4.0 0.00 0.00 0.00 34 1014.7
20260901234634 100 255 3.0 4.0 0.00 0.00 0.00 34 1014.9
20260901234130 100 189 2.0 3.0 0.00 0.00 0.00 36 1014.8
20260901233625 99 232 4.0 7.0 0.00 0.00 0.00 36 1014.7
20260901233121 100 211 0.0 3.0 0.00 0.00 0.00 39 1014.9
20260901232621 100 163 1.0 3.0 0.00 0.00 0.00 36 1015.0
20260901232116 99 294 2.0 5.0 0.00 0.00 0.00 37 1015.1
20260901231613 98 216 2.0 7.0 0.00 0.00 0.00 37 1015.2
20260901231108 99 231 3.0 5.0 0.00 0.00 0.00 40 1015.3
20260901230603 100 187 2.0 4.0 0.00 0.00 0.00 38 1015.3
20260901230058 98 249 3.0 7.0 0.00 0.00 0.00 36 1015.3
20260901225553 99 225 4.0 9.0 0.00 0.00 0.00 37 1015.4
20260901225052 99 228 3.0 7.0 0.00 0.00 0.00 38 1015.5
20260901224549 100 187 2.0 3.0 0.00 0.00 0.00 38 1015.4
20260901224044 98 88 2.0 4.0 0.00 0.00 0.00 41 1015.3
20260901223540 100 269 3.0 5.0 0.00 0.00 0.00 37 1015.4
20260901223035 98 269 2.0 5.0 0.00 0.00 0.00 37 1015.6
20260901222531 98 155 0.0 7.0 0.00 0.00 0.00 39 1015.4
20260901222027 97 214 4.0 7.0 0.00 0.00 0.00 40 1015.6
20260901221523 98 226 5.0 6.0 0.00 0.00 0.00 40 1015.6
20260901221018 99 70 2.0 3.0 0.00 0.00 0.00 39 1015.6
20260901220517 98 225 3.0 4.0 0.00 0.00 0.00 39 1015.8
20260901220016 98 252 2.0 4.0 0.00 0.00 0.00 40 1015.7
20260901215514 97 247 1.0 4.0 0.00 0.00 0.00 43 1016.1
20260901215009 96 105 3.0 6.0 0.00 0.00 0.00 42 1016.2
20260901214508 97 245 5.0 8.0 0.00 0.00 0.00 42 1015.8
20260901214003 98 251 2.0 4.0 0.00 0.00 0.00 40 1016.2
20260901213456 97 84 2.0 3.0 0.00 0.00 0.00 41 1016.4
20260901212955 97 55 1.0 4.0 0.00 0.00 0.00 42 1016.4
20260901212450 96 247 4.0 5.0 0.00 0.00 0.00 40 1016.7
20260901211942 96 224 3.0 7.0 0.00 0.00 0.00 42 1016.8
20260901211437 96 72 2.0 5.0 0.00 0.00 0.00 42 1016.9
20260901210933 96 243 5.0 8.0 0.00 0.00 0.00 42 1016.7
20260901210428 95 236 3.0 6.0 0.00 0.00 0.00 44 1016.8
20260901205925 96 215 2.0 6.0 0.00 0.00 0.00 45 1016.9
20260901205419 95 307 3.0 6.0 0.00 0.00 0.00 43 1017.0
20260901204914 95 262 3.0 7.0 0.00 0.00 0.00 45 1017.1
20260901204411 96 229 1.0 3.0 0.00 0.00 0.00 46 1017.4
20260901203910 95 285 2.0 4.0 0.00 0.00 0.00 43 1017.1